Location: Hermaringen
(48.5952°N, 10.2585°E)
Time: 11:13:40
(UTC+00:00)

Courier 1B - Pass Details

Date: 22 February 2026
Orbit: 962 x 1208 km, 28.3° (Epoch: 7 March)

Event Time Altitude Azimuth Distance (km) Brightness Sun altitude
Rises 19:05:58 0° 232° (SW) 3,847 11.2 -22.9°
Reaches altitude 10° 19:10:06 10° 210° (SSW) 2,946 10.2 -23.5°
Maximum altitude 19:13:45 15° 179° (S) 2,665 9.6 -24.1°
Enters shadow 19:15:08 14° 167° (SSE) 2,730 9.6 -24.3°
Drops below altitude 10° 19:17:29 10° 149° (SSE) 3,037 - -24.7°
Sets 19:21:51 0° 127° (SE) 4,043 - -25.4°
